[[{"header":{"parameterUnit":"m.s-1","parameterCategory":1,"la1":30.2991,"la2":30.254,"lo1":-89.0895,"lo2":-89.0444,"dy":0.0017,"dx":0.0017,"nx":28,"ny":28,"refTime":"2024-04-04T21:00:00:Z","depth":0,"parameterNumber":2,"parameterNumberName":"U-component_of_WINDS"},"data":[0,0,0,0,0,0,0,0,0,0,0,0,0,0,0,0,0,0,0,0,0,0,0,0,0,0,0,0,0,0,0,0,0,0,0,0,0,0,0,0,0,0,0,0,0,0,0,0,0,0,0,0,0,0,0,0,0,0,1.4707,1.4708,0,1.479,1.479,1.4791,1.4817,1.4817,1.4817,1.4816,1.4901,1.4903,1.4906,0,0,0,0,0,0,0,0,0,0,0,0,0,1.4573,1.4575,1.4707,1.4708,1.4709,1.4789,1.4791,1.4792,1.4817,1.4817,1.4816,1.4816,1.49,1.4903,1.4906,0,0,0,0,0,0,0,0,0,0,0,0,0,1.4641,1.4576,1.4707,1.4731,1.4735,1.4789,1.4791,1.4792,1.4817,1.4817,1.4816,1.4816,1.4899,1.4903,1.4906,1.4942,0,0,1.4918,1.492,0,0,0,0,0,0,0,0,1.4637,1.4646,1.4727,1.473,1.4733,1.4793,1.4774,1.4842,1.4818,1.4786,1.4816,1.4815,1.4865,1.4872,1.4889,1.4946,1.495,1.4919,1.4921,1.4923,1.4924,0,0,0,0,0,0,0,1.4632,1.4642,1.474,1.4728,1.4732,1.4739,1.4748,1.4787,1.4828,1.4789,1.4791,1.48,1.4867,1.4885,1.4891,1.4951,1.4919,1.4922,1.4925,1.4926,1.5045,1.5046,0,0,0,0,0,0,1.4623,1.4638,1.4737,1.4742,1.4683,1.4742,1.4752,1.4774,1.4827,1.4835,1.4801,1.4801,1.4878,1.4886,1.4894,1.494,1.4923,1.4927,1.4929,1.5044,1.5045,1.5046,0,0,0,0,0,0,1.462,1.4632,1.4734,1.4691,1.4704,1.4745,1.477,1.4776,1.4794,1.4837,1.4844,1.4811,1.4878,1.4888,1.4931,1.4944,1.4928,1.4932,1.5043,1.5044,1.5046,1.5033,0,0,0,0,0,0,1.4616,1.4631,1.4644,1.4691,1.4707,1.4768,1.477,1.4778,1.4801,1.4802,1.4849,1.4856,1.4878,1.4925,1.4934,1.4949,1.4935,1.5042,1.5044,1.5045,1.5032,1.5034,1.5035,0,0,0,0,0,1.4611,1.4637,1.4644,1.4656,1.4724,1.4769,1.4778,1.4804,1.4802,1.4816,1.4844,1.4854,1.4941,1.4929,1.494,1.4956,1.5041,1.5043,1.5045,1.5032,1.5033,1.5035,0,0,0,0,0,0,1.4589,1.4643,1.4652,1.4693,1.4727,1.4773,1.4792,1.4804,1.4838,1.4838,1.4869,1.4879,1.492,1.4942,1.4928,1.4994,1.4992,1.4996,1.4978,1.498,1.4981,1.4974,1.4938,0,0,0,0,0,1.4589,1.4621,1.4667,1.4699,1.4715,1.4751,1.4771,1.4788,1.4824,1.4838,1.4868,1.4903,1.4938,1.496,1.4995,1.5036,1.5047,1.5053,1.5054,1.5055,1.5058,1.5083,1.5086,1.5052,1.5052,1.5052,0,0,1.4589,1.4623,1.4641,1.4695,1.4723,1.4755,1.4762,1.4796,1.4821,1.4843,1.4885,1.4909,1.4949,1.4992,1.5012,1.5012,1.507,1.5057,1.5057,1.506,1.5085,1.5088,1.5091,1.5053,1.5053,1.5053,0,0,1.4606,1.4634,1.4665,1.4693,1.4735,1.4759,1.4767,1.4812,1.4829,1.4872,1.489,1.492,1.498,1.5008,1.5031,1.5062,1.5073,1.5072,1.5077,1.5102,1.5104,1.5107,1.5118,1.5122,1.5075,1.5075,1.5075,0,1.4601,1.465,1.4679,1.4712,1.4736,1.4759,1.4791,1.4817,1.4868,1.4884,1.4883,1.496,1.4989,1.5039,1.5047,1.5064,1.5074,1.5066,1.5102,1.5104,1.5107,1.5118,1.5123,1.5075,1.5075,1.5075,1.5075,0,1.4642,1.4677,1.4696,1.4746,1.4772,1.4804,1.4838,1.4862,1.4878,1.4902,1.4947,1.4982,1.5025,1.5039,1.5054,1.5092,1.5091,1.5095,1.5093,1.511,1.5121,1.5125,1.5074,1.5074,1.5074,1.5074,0,0,1.4645,1.4712,1.4718,1.4742,1.4792,1.4819,1.4853,1.4896,1.4916,1.4951,1.4981,1.5032,1.5038,1.5063,1.5083,1.5104,1.5127,1.5107,1.5108,1.5109,1.5172,1.5167,1.5171,1.5136,1.5137,1.5137,1.5168,0,1.4668,1.4729,1.4757,1.4807,1.484,1.4863,1.4894,1.4928,1.4952,1.4984,1.5012,1.5048,1.5052,1.5068,1.509,1.5119,1.514,1.5118,1.5164,1.5165,1.5152,1.5177,1.5172,1.5199,1.5173,1.5174,1.5174,0,1.4702,1.4738,1.4791,1.4839,1.4854,1.488,1.4923,1.4953,1.4993,1.5009,1.5039,1.5058,1.5096,1.5093,1.5146,1.513,1.5151,1.5169,1.5171,1.5175,1.517,1.5182,1.5209,1.5213,1.5181,1.5181,1.518,0,1.4699,1.4761,1.4801,1.4821,1.4877,1.4896,1.492,1.496,1.4984,1.5021,1.5038,1.5079,1.5101,1.5133,1.5164,1.5158,1.5214,1.5213,1.5229,1.5229,1.5239,1.5238,1.5269,1.5254,1.5254,1.5254,1.5253,0,1.4721,1.4753,1.4801,1.4825,1.4862,1.4895,1.493,1.4957,1.4992,1.5023,1.5046,1.5075,1.5113,1.5147,1.5171,1.5212,1.5222,1.5236,1.5242,1.5234,1.5232,1.5247,1.5246,1.5255,1.5254,1.5254,1.5254,0,1.4723,1.4757,1.4802,1.4853,1.4866,1.4891,1.4934,1.496,1.4987,1.5025,1.5036,1.5078,1.5119,1.5153,1.5207,1.5223,1.5266,1.5273,1.5252,1.5255,1.5269,1.5267,1.5311,1.5318,1.5298,1.5298,1.5299,0,1.4735,1.476,1.4813,1.4836,1.486,1.4896,1.4922,1.4955,1.4981,1.503,1.505,1.5093,1.5129,1.5193,1.5229,1.5271,1.5278,1.5291,1.5285,1.5276,1.5279,1.5276,1.5279,1.5291,1.5291,1.5291,1.5291,0,1.4752,1.4768,1.4804,1.4846,1.4876,1.4911,1.4947,1.4964,1.5005,1.5033,1.5075,1.5103,1.5159,1.5201,1.5247,1.5273,1.5289,1.5293,1.5299,1.529,1.5277,1.5285,1.5253,1.5292,1.5292,1.5292,1.5291,1.5291,1.4759,1.4783,1.4825,1.4865,1.4895,1.4929,1.4955,1.4986,1.5022,1.507,1.5088,1.5132,1.5174,1.5237,1.5264,1.5299,1.53,1.5309,1.5311,1.5313,1.5311,1.5273,1.5307,1.5307,1.5307,1.5307,1.5308,0,1.4777,1.4806,1.4842,1.4892,1.4924,1.4937,1.4978,1.5003,1.5042,1.5079,1.5115,1.5164,1.5207,1.5246,1.5291,1.5311,1.532,1.5322,1.532,1.5326,1.5307,1.5298,1.5314,1.5314,1.5314,1.5314,1.5314,1.5314,1.479,1.4832,1.4853,1.4911,1.494,1.4983,1.5005,1.5036,1.5067,1.5121,1.5156,1.5182,1.5221,1.5269,1.5308,1.5319,1.5334,1.5334,1.5347,1.5328,1.5327,1.5326,1.5317,1.5337,1.5337,1.5362,1.5363,1.5363]},{"header":{"parameterUnit":"m.s-1","parameterCategory":1,"la1":30.2991,"la2":30.254,"lo1":-89.0895,"lo2":-89.0444,"dy":0.0017,"dx":0.0017,"nx":28,"ny":28,"refTime":"2024-04-04T21:00:00:Z","depth":0,"parameterNumber":3,"parameterNumberName":"V-component_of_WINDS"},"data":[0,0,0,0,0,0,0,0,0,0,0,0,0,0,0,0,0,0,0,0,0,0,0,0,0,0,0,0,0,0,0,0,0,0,0,0,0,0,0,0,0,0,0,0,0,0,0,0,0,0,0,0,0,0,0,0,0,0,0.8382,0.8383,0,0.8477,0.8478,0.8479,0.8448,0.8446,0.8444,0.8442,0.8543,0.8548,0.8552,0,0,0,0,0,0,0,0,0,0,0,0,0,0.8172,0.8176,0.8381,0.8383,0.8384,0.8477,0.8478,0.848,0.8449,0.8446,0.8444,0.8441,0.8542,0.8547,0.8553,0,0,0,0,0,0,0,0,0,0,0,0,0,0.8265,0.8177,0.8381,0.838,0.838,0.8477,0.8478,0.848,0.8449,0.8446,0.8443,0.844,0.854,0.8546,0.8553,0.8658,0,0,0.8574,0.8577,0,0,0,0,0,0,0,0,0.8259,0.8272,0.8379,0.838,0.8381,0.8448,0.8441,0.854,0.845,0.8423,0.8442,0.8439,0.8514,0.8523,0.8548,0.8662,0.8667,0.8575,0.8579,0.8582,0.8584,0,0,0,0,0,0,0,0.8253,0.8268,0.8419,0.838,0.8382,0.8374,0.8384,0.846,0.8485,0.8425,0.8423,0.8435,0.8514,0.8541,0.855,0.8668,0.8575,0.8581,0.8585,0.8588,0.8868,0.8871,0,0,0,0,0,0,0.8246,0.8263,0.8416,0.8422,0.8311,0.838,0.8391,0.8429,0.8484,0.8489,0.8437,0.8433,0.8531,0.8542,0.8553,0.8676,0.8582,0.8589,0.8593,0.8865,0.8869,0.8872,0,0,0,0,0,0,0.8241,0.826,0.8413,0.8342,0.8361,0.8387,0.843,0.8433,0.846,0.8493,0.8497,0.846,0.8529,0.8543,0.8631,0.8679,0.8592,0.8598,0.8861,0.8866,0.8871,0.8924,0,0,0,0,0,0,0.8236,0.8258,0.8299,0.8343,0.8365,0.8489,0.8433,0.8437,0.8471,0.8467,0.8516,0.8521,0.8527,0.862,0.8637,0.8687,0.8603,0.8857,0.8863,0.8869,0.8918,0.893,0.894,0,0,0,0,0,0.8228,0.8312,0.8301,0.832,0.8416,0.8492,0.8504,0.8509,0.8476,0.8516,0.8536,0.8519,0.8671,0.863,0.8649,0.8701,0.8854,0.8861,0.8869,0.8913,0.8927,0.894,0,0,0,0,0,0,0.8275,0.8318,0.8307,0.8407,0.8446,0.8486,0.8538,0.8525,0.8575,0.8569,0.8574,0.8585,0.8673,0.8696,0.8649,0.8802,0.8757,0.8769,0.8784,0.8799,0.8809,0.8802,0.8609,0,0,0,0,0,0.8297,0.8354,0.8389,0.8474,0.8494,0.8512,0.8546,0.8546,0.8586,0.8603,0.863,0.8671,0.8726,0.8764,0.8818,0.892,0.8929,0.8965,0.8976,0.8985,0.8995,0.9047,0.9062,0.8897,0.8897,0.8897,0,0,0.8343,0.8373,0.841,0.8484,0.8514,0.8573,0.8527,0.8592,0.8635,0.8613,0.8696,0.8717,0.8762,0.8856,0.8899,0.8878,0.9042,0.8995,0.9002,0.9007,0.9056,0.9072,0.9086,0.8902,0.8901,0.89,0,0,0.8457,0.8487,0.8559,0.8589,0.8633,0.8644,0.8661,0.8703,0.8715,0.8798,0.8781,0.8832,0.893,0.8962,0.8991,0.911,0.9095,0.9128,0.9187,0.9237,0.925,0.9261,0.9301,0.9316,0.9138,0.9138,0.9138,0,0.8509,0.8597,0.8598,0.8663,0.8695,0.8675,0.8747,0.8776,0.8837,0.8859,0.8833,0.8952,0.8982,0.908,0.9109,0.9134,0.9152,0.9123,0.9248,0.9259,0.927,0.9308,0.9323,0.9141,0.9141,0.914,0.914,0,0.8657,0.8718,0.8771,0.8826,0.8864,0.8933,0.8943,0.8981,0.8977,0.899,0.9072,0.9105,0.9164,0.9187,0.9185,0.9285,0.9269,0.9246,0.9201,0.9289,0.9325,0.934,0.9146,0.9145,0.9144,0.9143,0,0,0.8806,0.8858,0.8877,0.89,0.8946,0.8993,0.9059,0.9114,0.9145,0.9186,0.924,0.9321,0.9297,0.933,0.9331,0.9375,0.9463,0.9345,0.9346,0.9364,0.9571,0.9587,0.9604,0.9453,0.9456,0.9458,0.9566,0,0.8922,0.9037,0.9038,0.9144,0.9198,0.9177,0.9234,0.9267,0.928,0.9327,0.9342,0.9397,0.9364,0.9383,0.9426,0.9443,0.9504,0.9436,0.9502,0.9504,0.949,0.9624,0.9643,0.9743,0.9581,0.9583,0.9585,0,0.9074,0.9116,0.9227,0.9259,0.9282,0.9334,0.9381,0.9428,0.9464,0.9469,0.9503,0.9495,0.956,0.9513,0.9601,0.9554,0.9581,0.9593,0.9597,0.9603,0.955,0.9632,0.9776,0.979,0.9607,0.9606,0.9604,0,0.9168,0.9253,0.9329,0.935,0.9391,0.9427,0.9446,0.9479,0.951,0.9552,0.9572,0.9621,0.9648,0.9686,0.969,0.9656,0.9778,0.9732,0.9784,0.9784,0.9811,0.9809,0.996,0.983,0.983,0.983,0.9829,0,0.9297,0.9365,0.9371,0.9418,0.9492,0.9491,0.9565,0.9581,0.9609,0.9657,0.9643,0.9688,0.9692,0.9739,0.9743,0.9813,0.9827,0.9832,0.9832,0.9833,0.9832,0.985,0.9843,0.9834,0.9833,0.9832,0.9831,0,0.9416,0.9423,0.9504,0.9534,0.9543,0.9597,0.9622,0.9666,0.9675,0.9736,0.9751,0.9766,0.9819,0.9827,0.9891,0.9893,0.9977,0.9971,0.9964,0.9963,1.0013,1.0008,1.0181,1.0202,1.006,1.0061,1.0062,0,0.9497,0.9548,0.9582,0.9613,0.9632,0.9683,0.9713,0.9713,0.9745,0.9787,0.9825,0.9876,0.9917,1.0003,1.0019,1.0066,1.006,1.0117,1.0067,1.0065,1.0058,1.0054,1.0058,1.0127,1.0128,1.013,1.0131,0,0.9639,0.9639,0.9684,0.9728,0.9764,0.98,0.9833,0.9859,0.9862,0.9899,0.9952,0.9983,1.0045,1.0096,1.0141,1.016,1.0145,1.0146,1.016,1.0161,1.0154,1.0156,0.9989,1.0142,1.0141,1.014,1.014,1.0139,0.9741,0.9783,0.9813,0.9861,0.9885,0.9916,0.9956,0.9969,1.0013,1.0063,1.006,1.0117,1.0147,1.0207,1.0228,1.0272,1.0253,1.0275,1.028,1.0284,1.0288,1.0147,1.0281,1.028,1.028,1.028,1.0279,0,0.988,0.9897,0.9942,0.9987,1.0024,1.0005,1.0039,1.0072,1.0122,1.0151,1.019,1.0249,1.0296,1.0314,1.036,1.0391,1.0385,1.0403,1.04,1.0404,1.0304,1.0286,1.0407,1.0407,1.0407,1.0407,1.0407,1.0407,0.9958,1.0027,1.003,1.011,1.0126,1.0181,1.0202,1.0229,1.0251,1.0317,1.0355,1.0366,1.039,1.0436,1.0477,1.0481,1.0498,1.0518,1.0519,1.0425,1.0412,1.04,1.0383,1.0522,1.0522,1.0616,1.0617,1.0617]}]]